This is the latest recevied weather packets stored in our database for station/object VA3WWD-2. If no packets are shown the sender has not sent any weather packets the latest 10 day(s).
| Time | Temp. | Humidity | Pressure | Rain* | Wind** | Luminosity | Snow |
|---|---|---|---|---|---|---|---|
| 1778080025 | 2.22° C | 62% | - | 0 mm | 0 m/s | - | - |
| 1778079727 | 2.22° C | 62% | - | 0 mm | 0 m/s | - | - |
| 1778079429 | 3.33° C | 61% | - | 0 mm | 0 m/s | - | - |
| 1778079128 | 3.33° C | 63% | - | 0 mm | 0 m/s | - | - |
| 1778078532 | 3.33° C | 67% | - | 0 mm | 0 m/s | - | - |
| 1778078231 | 3.89° C | 69% | - | 0 mm | 0 m/s | - | - |
| 1778077635 | 3.33° C | 70% | - | 0 mm | 0 m/s | - | - |
| 1778077334 | 3.33° C | 71% | - | 0 mm | 0 m/s | - | - |
| 1778077036 | 3.33° C | 71% | - | 0 mm | 0 m/s | - | - |
| 1778075540 | 1.67° C | 73% | - | 0 mm | 0 m/s | - | - |
| 1778074047 | 2.22° C | 74% | - | 0 mm | 0 m/s | - | - |
| 1778073746 | 2.22° C | 74% | - | 0 mm | 0 m/s | - | - |
| 1778073448 | 1.67° C | 74% | - | 0 mm | 0 m/s | - | - |
| 1778073150 | 1.67° C | 73% | - | 0 mm | 0 m/s | - | - |
| 1778072849 | 2.22° C | 72% | - | 0 mm | 0 m/s | - | - |
| 1778072551 | 2.22° C | 72% | - | 0 mm | 0 m/s | - | - |
| 1778072253 | 2.78° C | 72% | - | 0 mm | 0 m/s | - | - |
| 1778071952 | 2.78° C | 71% | - | 0 mm | 0 m/s | - | - |
| 1778071654 | 2.78° C | 71% | - | 0 mm | 0 m/s | - | - |
| 1778071356 | 3.33° C | 70% | - | 0 mm | 0 m/s | - | - |
| 1778071055 | 3.89° C | 69% | - | 0 mm | 0 m/s | - | - |
| 1778070459 | 3.89° C | 66% | - | 0 mm | 0 m/s | - | - |
| 1778070159 | 4.44° C | 66% | - | 0 mm | 0 m/s | - | - |
| 1778069860 | 4.44° C | 65% | - | 0 mm | 0 m/s | - | - |
| 1778069562 | 3.89° C | 65% | - | 0 mm | 0 m/s | - | - |
* Rain latest hour (hover to see other rain measurements)
** Current wind speed in m/s (hover to see current wind gust speed)